Weather History for LIRA - February, 2012

Change the Weather History Date:

Tuesday, February 21, 2012

  Actual Average Record
Temperature  
Mean Temperature 52 °F -  
Max Temperature 59 °F 58 °F 64 °F (2004)
Min Temperature 44 °F 40 °F 32 °F (2003)
Degree Days  
Heating Degree Days 14    
Growing Degree Days 2 (Base 50)    
Moisture  
Dew Point 42 °F    
Average Humidity 76    
Maximum Humidity 100    
Minimum Humidity 55    
Precipitation  
Precipitation 0.00 in 0.10 in - ()
Sea Level Pressure  
Sea Level Pressure 30.19 in    
Wind  
Wind Speed 4 mph ()    
Max Wind Speed 9 mph    
Max Gust Speed -    
Visibility 6.2 miles    
Events Rain    
Averages and records for this station are not official NWS values.
T = Trace of Precipitation, MM = Missing Value Source: Averaged Metar Reports

Daily Weather History Graph

Daily Weather History Graph

Search for Another Location

Airport or City:

Trip Planner

Search our weather history database for the weather conditions in past years. The results will help you decide how hot, cold, wet, or windy it might be!

Date:

Astronomy

Feb. 21, 2012 Rise Set
Actual Time 6:57 AM CET 5:49 PM CET
Civil Twilight 6:29 AM CET 6:17 PM CET
Nautical Twilight 5:57 AM CET 6:50 PM CET
Astronomical Twilight 5:25 AM CET 7:22 PM CET
Moon 6:17 AM CET (2/21) 5:39 PM CET (2/21)
Length of Visible Light 11h 48m
Length of Day
10h 51m
Waning Crescent, 0% of the Moon is Illuminated
Feb 21
Waning Crescent
Feb 21
New
Mar 1
First Quarter
Mar 8
Full
Mar 15
Last Quarter

Hourly Weather History & Observations

Time (CET) Temp. Windchill Dew Point Humidity Pressure Visibility Wind Dir Wind Speed Gust Speed Precip Events Conditions
12:15 AM 48.2 °F - 44.6 °F 87% 30.18 in 6.2 mi East 6.9 mph - N/A   Mostly Cloudy
12:45 AM 46.4 °F 44.3 °F 42.8 °F 87% 30.18 in 6.2 mi NE 4.6 mph - N/A   Mostly Cloudy
1:15 AM 46.4 °F - 42.8 °F 87% 30.21 in 6.2 mi NNE 2.3 mph - N/A   Scattered Clouds
1:45 AM 46.4 °F - 42.8 °F 87% 30.21 in 6.2 mi NNE 2.3 mph - N/A   Scattered Clouds
2:15 AM 44.6 °F - 42.8 °F 93% 30.21 in 6.2 mi North 2.3 mph - N/A   Scattered Clouds
2:45 AM 44.6 °F - 42.8 °F 93% 30.21 in 6.2 mi Calm Calm - N/A   Scattered Clouds
3:15 AM 44.6 °F - 42.8 °F 93% 30.21 in 6.2 mi NNE 2.3 mph - N/A   Scattered Clouds
3:45 AM 44.6 °F - 44.6 °F 100% 30.21 in 6.2 mi NNE 2.3 mph - N/A   Scattered Clouds
4:15 AM 46.4 °F - 44.6 °F 93% 30.21 in 6.2 mi NW 1.2 mph - N/A Rain Light Rain
4:45 AM 46.4 °F - 44.6 °F 93% 30.21 in 6.2 mi NW 2.3 mph - N/A Rain Light Rain
5:15 AM 46.4 °F 45.2 °F 44.6 °F 93% 30.21 in 6.2 mi North 3.5 mph - N/A Rain Light Rain
5:45 AM 46.4 °F 44.3 °F 44.6 °F 93% 30.21 in 6.2 mi North 4.6 mph - N/A Rain Light Rain
6:15 AM 46.4 °F 44.3 °F 44.6 °F 93% 30.21 in 6.2 mi North 4.6 mph - N/A Rain Light Rain
6:45 AM 44.6 °F 42.2 °F 42.8 °F 93% 30.21 in 6.2 mi NNE 4.6 mph - N/A Rain Light Rain
7:15 AM 44.6 °F 40.7 °F 42.8 °F 93% 30.21 in 6.2 mi NNE 6.9 mph - N/A   Mostly Cloudy
7:45 AM 44.6 °F 40.7 °F 42.8 °F 93% 30.21 in 6.2 mi NE 6.9 mph - N/A   Mostly Cloudy
8:15 AM 44.6 °F 42.2 °F 42.8 °F 93% 30.24 in 6.2 mi NNE 4.6 mph - N/A   Mostly Cloudy
8:45 AM 44.6 °F 42.2 °F 42.8 °F 93% 30.24 in 6.2 mi NNE 4.6 mph - N/A   Scattered Clouds
9:15 AM 44.6 °F 41.4 °F 42.8 °F 93% 30.24 in 6.2 mi NNE 5.8 mph - N/A   Scattered Clouds
9:45 AM 44.6 °F 42.2 °F 42.8 °F 93% 30.24 in 6.2 mi NNE 4.6 mph - N/A   Scattered Clouds
10:15 AM 48.2 °F - 44.6 °F 87% 30.24 in 6.2 mi NE 6.9 mph - N/A   Scattered Clouds
10:45 AM 50.0 °F - 46.4 °F 87% 30.24 in 6.2 mi North 6.9 mph - N/A   Scattered Clouds
11:15 AM 51.8 °F - 44.6 °F 76% 30.24 in 6.2 mi NNE 5.8 mph - N/A   Scattered Clouds
11:45 AM 53.6 °F - 46.4 °F 77% 30.24 in 6.2 mi NNE 5.8 mph - N/A   Scattered Clouds
12:15 PM 53.6 °F - 44.6 °F 72% 30.24 in 6.2 mi North 5.8 mph - N/A   Partly Cloudy
12:45 PM 55.4 °F - 44.6 °F 67% 30.21 in 6.2 mi North 4.6 mph - N/A   Partly Cloudy
1:15 PM 57.2 °F - 42.8 °F 59% 30.21 in 6.2 mi North 5.8 mph - N/A   Scattered Clouds
1:45 PM 57.2 °F - 42.8 °F 59% 30.21 in 6.2 mi North 6.9 mph - N/A   Partly Cloudy
2:15 PM 57.2 °F - 42.8 °F 59% 30.18 in 6.2 mi North 6.9 mph - N/A   Partly Cloudy
2:45 PM 57.2 °F - 41.0 °F 55% 30.18 in 6.2 mi NNW 9.2 mph - N/A   Partly Cloudy
3:15 PM 57.2 °F - 41.0 °F 55% 30.18 in 6.2 mi NNW 4.6 mph - N/A   Scattered Clouds
3:45 PM 57.2 °F - 41.0 °F 55% 30.15 in 6.2 mi NNW 5.8 mph - N/A   Scattered Clouds
4:15 PM 59.0 °F - 42.8 °F 55% 30.15 in 6.2 mi NW 5.8 mph - N/A   Scattered Clouds
4:45 PM 57.2 °F - 42.8 °F 59% 30.15 in 6.2 mi North 2.3 mph - N/A   Scattered Clouds
5:15 PM 57.2 °F - 41.0 °F 55% 30.15 in 6.2 mi NNW 2.3 mph - N/A   Scattered Clouds
5:45 PM 57.2 °F - 41.0 °F 55% 30.15 in 6.2 mi NNE 4.6 mph - N/A   Scattered Clouds
6:15 PM 53.6 °F - 39.2 °F 58% 30.15 in 6.2 mi ENE 8.1 mph - N/A   Scattered Clouds
6:45 PM 51.8 °F - 37.4 °F 58% 30.15 in 6.2 mi NE 8.1 mph - N/A   Scattered Clouds
7:15 PM 50.0 °F - 35.6 °F 58% 30.15 in 6.2 mi ENE 9.2 mph - N/A   Scattered Clouds
7:45 PM 50.0 °F - 35.6 °F 58% 30.15 in 6.2 mi ENE 6.9 mph - N/A   Scattered Clouds
8:15 PM 48.2 °F - 35.6 °F 62% 30.15 in 6.2 mi NE 5.8 mph - N/A   Scattered Clouds
8:45 PM 48.2 °F - 35.6 °F 62% 30.15 in 6.2 mi NE 5.8 mph - N/A   Scattered Clouds
9:15 PM 48.2 °F - 35.6 °F 62% 30.15 in 6.2 mi North 4.6 mph - N/A   Scattered Clouds
9:45 PM 48.2 °F - 35.6 °F 62% 30.15 in 6.2 mi North 5.8 mph - N/A   Scattered Clouds
10:15 PM 48.2 °F - 37.4 °F 66% 30.15 in 6.2 mi NNE 4.6 mph - N/A   Scattered Clouds
10:45 PM 48.2 °F - 37.4 °F 66% 30.15 in 6.2 mi North 4.6 mph - N/A   Scattered Clouds
11:15 PM 48.2 °F - 37.4 °F 66% 30.15 in 6.2 mi North 4.6 mph - N/A   Scattered Clouds
11:45 PM 46.4 °F 43.5 °F 37.4 °F 71% 30.15 in 6.2 mi WNW 5.8 mph - N/A   Scattered Clouds